2021-061A (49003 NORAD) Tracking and Keplerian Element Data

This shows tracking and keplerian element data for the satellite.

Feedback or suggestion? Click here.




ElementValue
Catalog49003
Name2021-061A
Epoch Orbit409
Epoch Day211.22524791
Epoch Year2021
RAAN278.0204
Inclination97.5381
Eccentricity0.0012288
Argument of Perigee170.765
Mean Anonmoly274.9352
Mean Motion15.09427719
Decay Rate-5E-08
L11 49003U 21061A 21211.22524791 -.00000005 00000-0 36251-5 0 9993
L22 49003 97.5381 278.0204 0012288 170.7650 274.9352 15.09427719 4091

Live tracking and technical data element details for 2021-061A (NORAD 49003). 2021-061A can be tracked NOW for your location showing map with azimuth and elevation plus other details from your city location.

Track the satellite on the map from your city or location and see movement details for azimuth, elevation, latitude, longitude, range, height, and movement on the map or in text.







IsCatalogInMostPopularTable: catalog: 49003, numindb: 5
Update: records affected: 1



GetName: 49003 2021-061A

Hit Count: updated at: Sat, 31 Jul 2021 15:32:41 GMT